TimeCDT,TemperatureF,Dew PointF,Humidity,Sea Level PressureIn,VisibilityMPH,Wind Direction,Wind SpeedMPH,Gust SpeedMPH,PrecipitationIn,Events,Conditions,WindDirDegrees,DateUTC
12:54 AM,75.9,73.9,94,30.01,10.0,East,10.4,-,N/A,,Overcast,100,2013-08-04 05:54:00
1:54 AM,75.9,73.9,94,30.02,5.0,ESE,6.9,-,0.01,Rain,Rain,120,2013-08-04 06:54:00
2:54 AM,75.9,75.0,97,30.02,8.0,East,8.1,-,N/A,Rain,Light Rain,90,2013-08-04 07:54:00
3:54 AM,75.0,73.9,96,30.05,9.0,North,5.8,-,0.03,,Scattered Clouds,10,2013-08-04 08:54:00
4:29 AM,75.2,73.4,94,30.09,7.0,North,6.9,-,0.01,Rain-Thunderstorm,Light Thunderstorms and Rain,350,2013-08-04 09:29:00
4:50 AM,75.2,73.4,94,30.09,8.0,NNE,5.8,-,0.02,Rain-Thunderstorm,Light Thunderstorms and Rain,20,2013-08-04 09:50:00
4:54 AM,75.0,73.9,96,30.06,9.0,NNE,4.6,-,0.02,Rain-Thunderstorm,Light Thunderstorms and Rain,30,2013-08-04 09:54:00
5:20 AM,75.2,73.4,94,30.11,4.0,NNE,8.1,-,0.01,Rain-Thunderstorm,Rain,20,2013-08-04 10:20:00
5:33 AM,75.2,73.4,94,30.11,6.0,NE,9.2,-,0.02,Rain-Thunderstorm,Light Thunderstorms and Rain,40,2013-08-04 10:33:00
5:51 AM,73.4,73.4,100,30.09,5.0,ENE,9.2,-,0.03,Rain,Rain,70,2013-08-04 10:51:00
5:54 AM,73.9,73.9,100,30.06,5.0,ENE,8.1,-,0.03,Rain,Rain,70,2013-08-04 10:54:00
6:54 AM,73.0,72.0,96,30.07,9.0,NNE,4.6,-,0.04,Rain,Light Rain,30,2013-08-04 11:54:00
7:54 AM,73.0,73.0,100,30.09,7.0,NE,4.6,-,0.03,Rain,Light Rain,50,2013-08-04 12:54:00
8:54 AM,73.9,73.9,100,30.11,3.0,Calm,Calm,-,0.04,Rain,Rain,0,2013-08-04 13:54:00
8:58 AM,73.4,73.4,100,30.14,1.8,North,3.5,-,0.00,Rain,Heavy Rain,350,2013-08-04 13:58:00
9:54 AM,73.9,73.9,100,30.07,6.0,ENE,8.1,-,N/A,Rain,Light Rain,60,2013-08-04 14:54:00
10:54 AM,75.0,73.9,96,30.04,10.0,East,10.4,-,0.04,,Partly Cloudy,100,2013-08-04 15:54:00
11:12 AM,75.2,75.2,100,30.08,9.0,East,13.8,-,0.02,,Mostly Cloudy,90,2013-08-04 16:12:00
11:54 AM,75.9,73.9,94,30.07,8.0,East,9.2,-,0.05,Rain,Light Rain,80,2013-08-04 16:54:00
12:54 PM,75.9,75.0,97,30.06,7.0,East,9.2,-,0.04,Rain,Light Rain,100,2013-08-04 17:54:00
1:54 PM,75.0,75.0,100,30.03,8.0,East,11.5,20.7,0.04,,Overcast,100,2013-08-04 18:54:00
2:54 PM,75.0,75.0,100,30.01,6.0,ESE,11.5,-,0.04,Rain,Light Rain,110,2013-08-04 19:54:00
3:54 PM,75.9,75.0,97,30.00,7.0,ESE,10.4,-,0.04,,Overcast,120,2013-08-04 20:54:00
4:40 PM,77.0,75.2,94,30.04,7.0,ESE,8.1,-,0.03,,Overcast,110,2013-08-04 21:40:00
4:54 PM,77.0,75.0,94,30.00,7.0,ESE,8.1,-,0.04,,Overcast,110,2013-08-04 21:54:00
5:21 PM,77.0,75.2,94,30.02,7.0,East,6.9,-,0.01,,Mostly Cloudy,100,2013-08-04 22:21:00
5:54 PM,77.0,75.0,94,29.98,6.0,East,6.9,-,0.03,,Mostly Cloudy,100,2013-08-04 22:54:00
6:09 PM,77.0,75.2,94,30.00,5.0,East,9.2,-,0.01,,Mostly Cloudy,90,2013-08-04 23:09:00
6:20 PM,77.0,75.2,94,30.00,5.0,East,9.2,-,0.02,,Scattered Clouds,90,2013-08-04 23:20:00
6:54 PM,77.0,75.0,94,29.96,5.0,East,11.5,-,0.04,,Scattered Clouds,100,2013-08-04 23:54:00
7:39 PM,77.0,75.2,94,30.00,6.0,East,9.2,-,0.02,,Mostly Cloudy,90,2013-08-05 00:39:00
7:54 PM,77.0,75.0,94,29.98,6.0,East,8.1,-,0.03,,Overcast,80,2013-08-05 00:54:00
8:08 PM,77.0,75.2,94,30.01,6.0,East,8.1,-,0.01,,Overcast,80,2013-08-05 01:08:00
8:47 PM,75.2,73.4,94,30.00,7.0,East,9.2,-,0.03,,Overcast,90,2013-08-05 01:47:00
8:54 PM,75.9,75.0,97,29.97,7.0,East,9.2,-,0.03,,Overcast,90,2013-08-05 01:54:00
9:54 PM,75.0,73.9,96,29.98,6.0,East,8.1,-,0.03,,Overcast,90,2013-08-05 02:54:00
10:54 PM,75.0,73.9,96,29.98,7.0,ENE,8.1,-,0.03,,Overcast,70,2013-08-05 03:54:00
11:54 PM,73.9,73.9,100,29.97,8.0,East,5.8,-,0.03,,Overcast,80,2013-08-05 04:54:00